Cairns, Australia

3:30 PM AEST on March 28, 2017 (GMT +1000)
Cairns International

Weather History for YBCS - February, 2014

Change the Weather History Date:

Monday, February 24, 2014

  Actual Average Record
Temperature  
Mean Temperature 81 °F -  
Max Temperature 87 °F 87 °F 91 °F (2005)
Min Temperature 75 °F 73 °F 71 °F (1999)
Cooling Degree Days 16    
Growing Degree Days 31 (Base 50)    
Moisture  
Dew Point 73 °F    
Average Humidity 79    
Maximum Humidity 94    
Minimum Humidity 53    
Precipitation  
Precipitation 0.04 in 0.58 in - ()
Sea Level Pressure  
Sea Level Pressure 29.84 in    
Wind  
Wind Speed 11 mph ()    
Max Wind Speed 20 mph    
Max Gust Speed -    
Visibility 6.4 miles    
Events Rain    
Averages and records for this station are not official NWS values.
T = Trace of Precipitation, MM = Missing Value Source: Averaged Metar Reports

Daily Weather History Graph

Daily Weather History Graph

Search for Another Location

Airport or City:

Trip Planner

Search our weather history database for the weather conditions in past years. The results will help you decide how hot, cold, wet, or windy it might be!

Date:

Astronomy

Feb. 24, 2014 Rise Set
Actual Time 6:14 AM AEST 6:45 PM AEST
Civil Twilight 5:52 AM AEST 7:07 PM AEST
Nautical Twilight 5:27 AM AEST 7:33 PM AEST
Astronomical Twilight 5:01 AM AEST 7:58 PM AEST
Moon 12:42 AM AEST (2/24) 2:00 PM AEST (2/24)
Length of Visible Light 13h 14m
Length of Day
12h 30m
Waning Crescent, 35% of the Moon is Illuminated
Feb 24
Waning Crescent
Mar 1
New
Mar 8
First Quarter
Mar 17
Full
Mar 24
Last Quarter

Hourly Weather History & Observations

Time (AEST) Temp. Heat Index Dew Point Humidity Pressure Visibility Wind Dir Wind Speed Gust Speed Precip Events Conditions
12:00 AM 76 °F - 73 °F 88% 29.86 in - South 15.0 mph - -   Overcast
12:00 AM 75.2 °F - 73.4 °F 94% 29.86 in 3.1 mi South 15.0 mph - N/A Rain Light Rain Showers
12:30 AM 75.2 °F - 73.4 °F 94% 29.86 in 3.7 mi SSE 9.2 mph - N/A Rain Light Rain Showers
1:00 AM 77 °F - 73 °F 83% 29.85 in - SSW 9.2 mph - -  
1:00 AM 77.0 °F - 73.4 °F 89% 29.83 in 4.3 mi SSW 9.2 mph - N/A Rain Light Rain Showers
1:30 AM 78.8 °F - 73.4 °F 83% 29.80 in 5.6 mi SSW 8.1 mph - N/A   Mostly Cloudy
2:00 AM 78.8 °F - 73.4 °F 83% 29.80 in 6.2 mi South 8.1 mph - N/A   Mostly Cloudy
2:30 AM 77.0 °F - 73.4 °F 89% 29.80 in 6.2 mi SSE 10.4 mph - N/A   Mostly Cloudy
2:54 AM 77.0 °F - 75.2 °F 94% 29.80 in 3.7 mi South 12.7 mph - N/A Rain Light Rain Showers
3:00 AM 77 °F - 75 °F 90% 29.81 in 4 mi SSE 11.5 mph - -   Overcast
3:00 AM 77.0 °F - 75.2 °F 94% 29.80 in 3.1 mi SSE 11.5 mph - N/A Rain Light Rain Showers
3:30 AM 77.0 °F - 75.2 °F 94% 29.80 in 5.0 mi SSE 6.9 mph - N/A Rain Light Rain Showers
4:00 AM 77 °F - 75 °F 91% 29.81 in - SSE 11.5 mph - -  
4:00 AM 77.0 °F - 75.2 °F 94% 29.80 in 5.6 mi SSE 11.5 mph - N/A Rain Light Rain Showers
4:30 AM 77.0 °F - 73.4 °F 89% 29.80 in 5.6 mi South 10.4 mph - N/A   Mostly Cloudy
5:00 AM 77.0 °F - 73.4 °F 89% 29.80 in 6.2 mi South 10.4 mph - N/A   Mostly Cloudy
5:30 AM 77.0 °F - 73.4 °F 89% 29.80 in 6.2 mi South 15.0 mph - N/A   Mostly Cloudy
6:00 AM 78 °F - 72 °F 77% 29.83 in 16 mi South 15.0 mph - -   Partly Cloudy
6:00 AM 78.8 °F - 71.6 °F 78% 29.83 in 6.2 mi South 15.0 mph - N/A   Partly Cloudy
6:30 AM 78.8 °F - 71.6 °F 78% 29.83 in 6.2 mi South 12.7 mph - N/A   Partly Cloudy
7:00 AM 78 °F - 72 °F 78% 29.86 in - South 13.8 mph - -  
7:00 AM 78.8 °F - 71.6 °F 78% 29.86 in 6.2 mi South 13.8 mph - N/A   Scattered Clouds
7:30 AM 78.8 °F - 71.6 °F 78% 29.86 in 6.2 mi SSE 13.8 mph - N/A   Scattered Clouds
8:00 AM 80.6 °F 84.6 °F 71.6 °F 74% 29.86 in 6.2 mi South 11.5 mph - N/A   Scattered Clouds
8:30 AM 82.4 °F 88.2 °F 73.4 °F 74% 29.86 in 6.2 mi SSE 13.8 mph - N/A   Scattered Clouds
9:00 AM 83 °F - 73 °F 64% 29.88 in 16 mi South 13.8 mph - -   Partly Cloudy
9:00 AM 82.4 °F 88.2 °F 73.4 °F 74% 29.89 in 6.2 mi South 13.8 mph - N/A   Scattered Clouds
9:30 AM 84.2 °F 90.9 °F 73.4 °F 70% 29.89 in 6.2 mi SSE 15.0 mph - N/A   Partly Cloudy
10:00 AM 84 °F - 73 °F 62% 29.89 in - SSE 11.5 mph - -  
10:00 AM 84.2 °F 90.9 °F 73.4 °F 70% 29.89 in 6.2 mi SSE 11.5 mph - N/A   Scattered Clouds
10:30 AM 84.2 °F 90.9 °F 73.4 °F 70% 29.86 in 6.2 mi South 11.5 mph - N/A   Scattered Clouds
11:00 AM 84.2 °F 90.9 °F 73.4 °F 70% 29.86 in 6.2 mi SSE 10.4 mph - N/A   Mostly Cloudy
11:30 AM 84.2 °F 89.6 °F 71.6 °F 66% 29.86 in 6.2 mi SE 11.5 mph - N/A   Mostly Cloudy
12:00 PM 83 °F - 72 °F 63% 29.86 in 6 mi SSE 13.8 mph - - Rain Light Rain Showers
12:00 PM 84.2 °F 89.6 °F 71.6 °F 66% 29.86 in 5.6 mi SSE 13.8 mph - N/A Rain Light Rain Showers
12:30 PM 82.4 °F 89.5 °F 75.2 °F 79% 29.83 in 6.2 mi South 8.1 mph - N/A   Mostly Cloudy
1:00 PM 84 °F - 75 °F 67% 29.84 in - South 8.1 mph - -  
1:00 PM 84.2 °F 92.3 °F 75.2 °F 74% 29.83 in 6.2 mi South 8.1 mph - N/A   Mostly Cloudy
1:30 PM 84.2 °F 92.3 °F 75.2 °F 74% 29.80 in 6.2 mi SE 13.8 mph - N/A   Scattered Clouds
2:00 PM 86.0 °F 93.4 °F 73.4 °F 66% 29.80 in 6.2 mi SE 17.3 mph - N/A   Scattered Clouds
2:30 PM 86.0 °F 90.4 °F 69.8 °F 58% 29.80 in 6.2 mi SSE 17.3 mph - N/A   Scattered Clouds
3:00 PM 87 °F - 72 °F 53% 29.79 in 19 mi SSE 17.3 mph - -   Partly Cloudy
3:00 PM 87.8 °F 93.8 °F 71.6 °F 58% 29.77 in 6.2 mi SSE 17.3 mph - N/A   Scattered Clouds
3:30 PM 86.0 °F 93.4 °F 73.4 °F 66% 29.80 in 6.2 mi SE 18.4 mph - N/A   Mostly Cloudy
4:00 PM 83 °F - 71 °F 60% 29.81 in - SE 19.6 mph - -  
4:00 PM 82.4 °F 87.2 °F 71.6 °F 70% 29.80 in 6.2 mi SE 19.6 mph - N/A   Mostly Cloudy
4:30 PM 80.6 °F 84.6 °F 71.6 °F 74% 29.80 in 6.2 mi South 9.2 mph - N/A   Mostly Cloudy
5:00 PM 82.4 °F 88.2 °F 73.4 °F 74% 29.80 in 6.2 mi South 11.5 mph - N/A   Mostly Cloudy
5:30 PM 80.6 °F 84.6 °F 71.6 °F 74% 29.83 in 6.2 mi South 10.4 mph - N/A   Mostly Cloudy
6:00 PM 78 °F - 72 °F 78% 29.84 in - South 12.7 mph - -   Overcast
6:00 PM 77.0 °F - 73.4 °F 89% 29.83 in 6.2 mi South 12.7 mph - N/A Rain Light Rain Showers
6:30 PM 78.8 °F - 71.6 °F 78% 29.83 in 6.2 mi South 10.4 mph - N/A   Mostly Cloudy
7:00 PM 78 °F - 72 °F 77% 29.87 in - South 9.2 mph - -  
7:00 PM 78.8 °F - 71.6 °F 78% 29.86 in 6.2 mi South 9.2 mph - N/A   Mostly Cloudy
7:30 PM 75.2 °F - 71.6 °F 89% 29.86 in 6.2 mi South 12.7 mph - N/A Rain Light Rain Showers
8:00 PM 77.0 °F - 71.6 °F 83% 29.86 in 6.2 mi SSW 11.5 mph - N/A   Mostly Cloudy
8:30 PM 77.0 °F - 73.4 °F 89% 29.86 in 6.2 mi South 9.2 mph - N/A   Mostly Cloudy
9:00 PM 77 °F - 72 °F 81% 29.88 in - SSE 9.2 mph - -   Overcast
9:00 PM 77.0 °F - 71.6 °F 83% 29.89 in 6.2 mi SSE 9.2 mph - N/A   Mostly Cloudy
9:30 PM 75.2 °F - 73.4 °F 94% 29.89 in 6.2 mi SE 9.2 mph - N/A   Mostly Cloudy
10:00 PM 76 °F - 73 °F 86% 29.89 in - SE 8.1 mph - -  
10:00 PM 77.0 °F - 73.4 °F 89% 29.89 in 6.2 mi SE 8.1 mph - N/A   Mostly Cloudy
10:30 PM 77.0 °F - 71.6 °F 83% 29.89 in 6.2 mi South 9.2 mph - N/A   Scattered Clouds
11:00 PM 75.2 °F - 73.4 °F 94% 29.89 in 6.2 mi ESE 9.2 mph - N/A   Partly Cloudy
11:30 PM 77.0 °F - 71.6 °F 83% 29.86 in 6.2 mi SSE 10.4 mph - N/A   Unknown